Change the Weather History Date:

Wednesday, September 25, 2013

  Actual Average Record
Temperature  
Mean Temperature 57 °F -  
Max Temperature 68 °F 64 °F 85 °F (1984)
Min Temperature 46 °F 44 °F 29 °F (1985)
Degree Days  
Heating Degree Days 8    
Growing Degree Days 7 (Base 50)    
Moisture  
Dew Point 50 °F    
Average Humidity 85    
Maximum Humidity 100    
Minimum Humidity 55    
Precipitation  
Precipitation 0.01 in - - ()
Sea Level Pressure  
Sea Level Pressure 30.00 in    
Wind  
Wind Speed 2 mph (NE)    
Max Wind Speed 9 mph    
Max Gust Speed -    
Visibility 5 miles    
Events Fog    
Averages and records for this station are not official NWS values.
T = Trace of Precipitation, MM = Missing Value Source: NWS Daily Summary

Daily Weather History Graph

Daily Weather History Graph

Search for Another Location

Airport or City:

Trip Planner

Search our weather history database for the weather conditions in past years. The results will help you decide how hot, cold, wet, or windy it might be!

Date:

Astronomy

Sep. 25, 2013 Rise Set
Actual Time 6:45 AM CDT 6:45 PM CDT
Civil Twilight 6:16 AM CDT 7:14 PM CDT
Nautical Twilight 5:42 AM CDT 7:47 PM CDT
Astronomical Twilight 5:08 AM CDT 8:22 PM CDT
Moon 10:41 PM CDT (9/25) 1:01 PM CDT (9/25)
Length of Visible Light 12h 57m
Length of Day
12h 00m
Waning Gibbous, 64% of the Moon is Illuminated
Sep 25
Waning Gibbous
Sep 26
Last Quarter
Oct 4
New
Oct 11
First Quarter
Oct 18
Full

Hourly Weather History & Observations

Time (CDT) Temp. Dew Point Humidity Pressure Visibility Wind Dir Wind Speed Gust Speed Precip Events Conditions
12:53 AM 52.0 °F 48.0 °F 86% 29.98 in 7.0 mi Calm Calm - N/A   Clear
1:53 AM 53.1 °F 50.0 °F 89% 29.98 in 7.0 mi Calm Calm - 0.01 in   Clear
2:53 AM 52.0 °F 48.9 °F 89% 29.98 in 7.0 mi Calm Calm - N/A   Clear
3:38 AM 48.2 °F 46.4 °F 93% 30.00 in 2.5 mi Calm Calm - N/A   Clear
3:53 AM 48.9 °F 48.0 °F 97% 30.00 in 4.0 mi Calm Calm - N/A   Clear
4:25 AM 46.4 °F 46.4 °F 100% 30.00 in 2.5 mi Calm Calm - N/A   Clear
4:34 AM 46.4 °F 46.4 °F 100% 30.00 in 3.0 mi Calm Calm - N/A   Clear
4:53 AM 46.0 °F 44.1 °F 93% 30.00 in 4.0 mi Calm Calm - N/A   Clear
5:21 AM 46.4 °F 44.6 °F 93% 30.01 in 6.0 mi Calm Calm - N/A   Mostly Cloudy
5:53 AM 54.0 °F 51.1 °F 90% 30.00 in 7.0 mi NE 4.6 mph - N/A   Overcast
6:35 AM 50.0 °F 46.4 °F 87% 30.01 in 3.0 mi North 8.1 mph - N/A   Mostly Cloudy
6:50 AM 48.2 °F 46.4 °F 93% 30.01 in 2.5 mi North 6.9 mph - N/A   Mostly Cloudy
6:53 AM 48.9 °F 46.9 °F 93% 30.01 in 2.0 mi North 5.8 mph - N/A   Mostly Cloudy
6:59 AM 50.0 °F 48.2 °F 94% 30.01 in 1.8 mi North 4.6 mph - N/A   Mostly Cloudy
7:09 AM 50.0 °F 48.2 °F 94% 30.02 in 1.8 mi NNW 4.6 mph - N/A   Overcast
7:53 AM 50.0 °F 48.0 °F 93% 30.02 in 1.8 mi Calm Calm - N/A   Overcast
8:03 AM 51.8 °F 48.2 °F 88% 30.02 in 2.0 mi Calm Calm - N/A   Overcast
8:48 AM 55.4 °F 51.8 °F 88% 30.02 in 0.5 mi NNE 3.5 mph - N/A   Overcast
8:53 AM 55.9 °F 53.1 °F 90% 30.02 in 0.5 mi NE 5.8 mph - N/A   Overcast
9:06 AM 55.4 °F 53.6 °F 94% 30.03 in 0.2 mi NNE 6.9 mph - N/A Fog Fog
9:36 AM 55.4 °F 53.6 °F 94% 30.03 in 0.5 mi NE 9.2 mph - N/A Fog Fog
9:53 AM 55.9 °F 54.0 °F 93% 30.02 in 0.8 mi NE 8.1 mph - N/A   Overcast
10:00 AM 57.2 °F 55.4 °F 94% 30.03 in 1.0 mi NE 6.9 mph - N/A   Overcast
10:45 AM 60.8 °F 55.4 °F 82% 30.03 in 1.0 mi NNE 5.8 mph - N/A   Haze
10:53 AM 61.0 °F 55.9 °F 83% 30.03 in 3.0 mi NE 5.8 mph - N/A   Haze
11:12 AM 60.8 °F 53.6 °F 77% 30.03 in 6.0 mi East 5.8 mph - N/A   Haze
11:53 AM 62.1 °F 55.0 °F 78% 30.02 in 5.0 mi North 4.6 mph - N/A   Haze
12:53 PM 64.9 °F 53.1 °F 65% 30.01 in 10.0 mi Variable 3.5 mph - N/A   Mostly Cloudy
1:53 PM 66.0 °F 53.1 °F 63% 29.99 in 10.0 mi NE 5.8 mph - N/A   Clear
2:53 PM 66.9 °F 51.1 °F 57% 29.98 in 10.0 mi Variable 3.5 mph - N/A   Clear
3:53 PM 68.0 °F 51.1 °F 55% 29.97 in 10.0 mi Variable 4.6 mph - N/A   Clear
4:53 PM 66.9 °F 51.1 °F 57% 29.97 in 10.0 mi NE 3.5 mph - N/A   Clear
5:53 PM 66.0 °F 52.0 °F 60% 29.97 in 10.0 mi Calm Calm - N/A   Clear
6:53 PM 61.0 °F 51.1 °F 70% 29.98 in 10.0 mi ESE 6.9 mph - N/A   Clear
7:53 PM 59.0 °F 50.0 °F 72% 29.99 in 10.0 mi SE 4.6 mph - N/A   Clear
8:53 PM 55.0 °F 48.9 °F 80% 29.99 in 10.0 mi SSE 3.5 mph - N/A   Clear
9:53 PM 51.1 °F 48.0 °F 89% 30.00 in 10.0 mi Calm Calm - N/A   Clear
10:53 PM 48.9 °F 46.9 °F 93% 30.00 in 7.0 mi Calm Calm - N/A   Clear
11:50 PM 46.4 °F 44.6 °F 93% 30.01 in 1.2 mi Calm Calm - N/A   Clear
11:53 PM 46.9 °F 44.1 °F 90% 30.01 in 1.0 mi Calm Calm - N/A   Clear